Weather History for Willmar, MN

Change the Weather History Date:

Saturday, August 9, 2014

  Actual Average (KLJF) Record (KLJF)
Temperature  
Mean Temperature 73 °F -  
Max Temperature 78 °F 81 °F 93 °F (1958)
Min Temperature 68 °F 58 °F 46 °F (1972)
Cooling Degree Days 8    
Growing Degree Days 23 (Base 50)    
Moisture  
Dew Point 62 °F    
Average Humidity 71    
Maximum Humidity 88    
Minimum Humidity 57    
Precipitation  
Precipitation 0.15 in - - ()
Sea Level Pressure  
Sea Level Pressure 30.08 in    
Wind  
Wind Speed 7 mph (ESE)    
Max Wind Speed 13 mph    
Max Gust Speed 17 mph    
Visibility 10 miles    
Events Rain , Thunderstorm    
Averages and records for this station are not official NWS values.
T = Trace of Precipitation, MM = Missing Value Source: NWS Daily Summary

Daily Weather History Graph

Daily Weather History Graph

Search for Another Location

Airport:

Trip Planner

Search our weather history database for the weather conditions in past years. The results will help you decide how hot, cold, wet, or windy it might be!

Date:

Astronomy

Aug. 09, 2014 Rise Set
Actual Time 6:14 AM CDT 8:36 PM CDT
Civil Twilight 5:42 AM CDT 9:08 PM CDT
Nautical Twilight 5:01 AM CDT 9:49 PM CDT
Astronomical Twilight 4:15 AM CDT 10:35 PM CDT
Moon 7:37 PM CDT (8/9) 4:56 AM CDT (8/9)
Length of Visible Light 15h 26m
Length of Day
14h 21m
Waxing Gibbous, 98% of the Moon is Illuminated
Aug 9
Waxing Gibbous
Aug 10
Full
Aug 17
Last Quarter
Aug 25
New
Sep 2
First Quarter

Hourly Weather History & Observations

Time (CDT) Temp. Dew Point Humidity Pressure Visibility Wind Dir Wind Speed Gust Speed Precip Events Conditions
12:15 AM 71.6 °F 60.8 °F 69% 30.08 in 10.0 mi ESE 4.6 mph - N/A   Scattered Clouds
12:35 AM 71.6 °F 60.8 °F 69% 30.08 in 10.0 mi ESE 6.9 mph - N/A   Scattered Clouds
12:55 AM 71.6 °F 60.8 °F 69% 30.07 in 10.0 mi ESE 5.8 mph - N/A   Scattered Clouds
1:15 AM 69.8 °F 60.8 °F 73% 30.07 in 10.0 mi ESE 6.9 mph - N/A   Mostly Cloudy
1:35 AM 69.8 °F 60.8 °F 73% 30.07 in 10.0 mi ESE 6.9 mph - N/A   Scattered Clouds
1:55 AM 69.8 °F 59.0 °F 68% 30.07 in 10.0 mi ESE 5.8 mph - N/A   Scattered Clouds
2:15 AM 69.8 °F 60.8 °F 73% 30.06 in 10.0 mi ESE 5.8 mph - N/A   Clear
2:35 AM 69.8 °F 60.8 °F 73% 30.07 in 10.0 mi ESE 5.8 mph - N/A   Scattered Clouds
2:55 AM 69.8 °F 59.0 °F 68% 30.07 in 10.0 mi East 6.9 mph - N/A   Scattered Clouds
3:15 AM 69.8 °F 59.0 °F 68% 30.08 in 10.0 mi ESE 5.8 mph - N/A   Scattered Clouds
3:35 AM 69.8 °F 60.8 °F 73% 30.08 in 10.0 mi ESE 5.8 mph - N/A   Clear
3:55 AM 69.8 °F 60.8 °F 73% 30.08 in 10.0 mi ESE 5.8 mph - N/A   Scattered Clouds
4:15 AM 69.8 °F 60.8 °F 73% 30.07 in 10.0 mi ESE 8.1 mph - N/A   Scattered Clouds
4:35 AM 69.8 °F 60.8 °F 73% 30.07 in 10.0 mi ESE 9.2 mph - N/A   Mostly Cloudy
4:55 AM 69.8 °F 60.8 °F 73% 30.08 in 10.0 mi ESE 6.9 mph - N/A   Scattered Clouds
5:15 AM 68.0 °F 60.8 °F 78% 30.08 in 10.0 mi ESE 5.8 mph - N/A   Scattered Clouds
5:35 AM 68.0 °F 60.8 °F 78% 30.08 in 10.0 mi ESE 4.6 mph - N/A   Scattered Clouds
5:55 AM 68.0 °F 60.8 °F 78% 30.08 in 10.0 mi ESE 5.8 mph - N/A   Scattered Clouds
6:15 AM 68.0 °F 60.8 °F 78% 30.09 in 10.0 mi ESE 5.8 mph - N/A   Scattered Clouds
6:35 AM 68.0 °F 60.8 °F 78% 30.10 in 10.0 mi ESE 3.5 mph - N/A   Scattered Clouds
6:55 AM 68.0 °F 60.8 °F 78% 30.10 in 10.0 mi SE 4.6 mph - N/A   Clear
7:15 AM 68.0 °F 60.8 °F 78% 30.10 in 10.0 mi ESE 4.6 mph - N/A   Clear
7:35 AM 68.0 °F 60.8 °F 78% 30.11 in 10.0 mi ESE 4.6 mph - N/A   Clear
7:54 AM 69.8 °F 60.8 °F 73% 30.10 in 10.0 mi SE 6.9 mph - N/A   Clear
8:15 AM 69.8 °F 60.8 °F 73% 30.11 in 10.0 mi SE 6.9 mph - N/A   Clear
8:35 AM 69.8 °F 60.8 °F 73% 30.11 in 10.0 mi SE 6.9 mph - N/A   Clear
8:54 AM 69.8 °F 60.8 °F 73% 30.11 in 10.0 mi SE 9.2 mph - N/A   Clear
9:15 AM 69.8 °F 60.8 °F 73% 30.10 in 10.0 mi SE 8.1 mph - N/A   Clear
9:35 AM 71.6 °F 60.8 °F 69% 30.10 in 10.0 mi SE 8.1 mph - N/A   Clear
9:54 AM 71.6 °F 60.8 °F 69% 30.10 in 10.0 mi SE 10.4 mph - N/A   Clear
10:15 AM 73.4 °F 62.6 °F 69% 30.10 in 10.0 mi SSE 9.2 mph - N/A   Clear
10:35 AM 75.2 °F 60.8 °F 61% 30.10 in 10.0 mi SE 10.4 mph - N/A   Clear
10:55 AM 75.2 °F 62.6 °F 65% 30.10 in 10.0 mi SE 11.5 mph - N/A   Clear
11:15 AM 75.2 °F 62.6 °F 65% 30.10 in 10.0 mi SE 11.5 mph - N/A   Clear
11:35 AM 75.2 °F 60.8 °F 61% 30.10 in 10.0 mi SSE 8.1 mph - N/A   Clear
12:15 PM 75.2 °F 62.6 °F 65% 30.10 in 10.0 mi SE 6.9 mph - N/A   Scattered Clouds
12:35 PM 73.4 °F 62.6 °F 69% 30.10 in 10.0 mi SE 6.9 mph - N/A   Clear
12:55 PM 75.2 °F 62.6 °F 65% 30.09 in 10.0 mi SE 8.1 mph - N/A   Clear
1:15 PM 75.2 °F 62.6 °F 65% 30.09 in 10.0 mi SE 9.2 mph - N/A   Clear
1:35 PM 75.2 °F 62.6 °F 65% 30.09 in 10.0 mi SE 11.5 mph - N/A   Clear
1:55 PM 75.2 °F 62.6 °F 65% 30.09 in 10.0 mi SE 10.4 mph - N/A   Clear
2:15 PM 75.2 °F 62.6 °F 65% 30.08 in 10.0 mi SE 8.1 mph - N/A   Clear
2:35 PM 77.0 °F 62.6 °F 61% 30.08 in 10.0 mi SE 12.7 mph - N/A   Clear
2:55 PM 77.0 °F 62.6 °F 61% 30.08 in 10.0 mi SE 11.5 mph - N/A   Clear
3:15 PM 78.8 °F 62.6 °F 57% 30.08 in 10.0 mi SE 12.7 mph - N/A   Clear
3:55 PM 77.0 °F 60.8 °F 57% 30.07 in 10.0 mi SE 10.4 mph - N/A   Clear
4:15 PM 77.0 °F 60.8 °F 57% 30.07 in 10.0 mi SE 11.5 mph 17.3 mph N/A   Clear
4:55 PM 75.2 °F 60.8 °F 61% 30.07 in 10.0 mi SE 12.7 mph - N/A   Clear
5:15 PM 75.2 °F 60.8 °F 61% 30.06 in 10.0 mi SE 12.7 mph - N/A   Clear
5:35 PM 75.2 °F 62.6 °F 65% 30.07 in 10.0 mi SE 9.2 mph - N/A   Clear
5:55 PM 75.2 °F 60.8 °F 61% 30.06 in 10.0 mi SE 9.2 mph - N/A   Clear
6:14 PM 75.2 °F 60.8 °F 61% 30.05 in 10.0 mi ESE 10.4 mph - N/A   Clear
6:35 PM 75.2 °F 60.8 °F 61% 30.05 in 10.0 mi SE 9.2 mph - N/A   Clear
6:55 PM 75.2 °F 60.8 °F 61% 30.05 in 10.0 mi ESE 10.4 mph - N/A   Clear
7:14 PM 73.4 °F 62.6 °F 69% 30.05 in 10.0 mi ESE 8.1 mph - N/A Rain Light Rain
7:35 PM 73.4 °F 62.6 °F 69% 30.06 in 10.0 mi ESE 8.1 mph - N/A Rain Light Rain
7:55 PM 71.6 °F 62.6 °F 73% 30.05 in 7.0 mi ESE 9.2 mph - N/A Rain Light Rain
8:15 PM 71.6 °F 62.6 °F 73% 30.05 in 10.0 mi East 6.9 mph - N/A Rain Light Rain
8:55 PM 69.8 °F 62.6 °F 78% 30.06 in 10.0 mi ESE 5.8 mph - 0.03 in Rain Light Rain
9:15 PM 69.8 °F 62.6 °F 78% 30.06 in 10.0 mi East 4.6 mph - 0.02 in Rain Rain
9:35 PM 69.8 °F 64.4 °F 83% 30.06 in 10.0 mi East 5.8 mph - 0.04 in Rain , Thunderstorm Light Thunderstorms and Rain
9:55 PM 69.8 °F 64.4 °F 83% 30.06 in 10.0 mi East 3.5 mph - 0.06 in Rain , Thunderstorm Rain
10:35 PM 68.0 °F 64.4 °F 88% 30.06 in 10.0 mi East 5.8 mph - 0.04 in Rain Light Rain
10:55 PM 68.0 °F 64.4 °F 88% 30.05 in 10.0 mi ESE 8.1 mph - 0.05 in Rain Rain
11:15 PM 68.0 °F 64.4 °F 88% 30.05 in 7.0 mi ESE 8.1 mph - N/A Rain Light Rain
11:34 PM 68.0 °F 64.4 °F 88% 30.04 in 10.0 mi ESE 9.2 mph - 0.01 in Rain Light Rain
11:55 PM 68.0 °F 64.4 °F 88% 30.04 in 7.0 mi ESE 6.9 mph - 0.01 in   Clear